Time,TemperatureF,DewpointF,PressureIn,WindDirection,WindDirectionDegrees,WindSpeedMPH,WindSpeedGustMPH,Humidity,HourlyPrecipIn,Conditions,Clouds,dailyrainin,SolarRadiationWatts/m^2,SoftwareType,DateUTC
2013-04-08 00:02:00,37.0,36.0,-100.00,NNE,12,8.0,13.0,98,0.02,,,0.18,0.000000,,2013-04-08 06:02:00,
2013-04-08 00:12:00,37.0,36.0,-100.00,NNE,12,8.0,13.0,98,0.02,,,0.18,0.000000,,2013-04-08 06:12:00,
2013-04-08 00:21:00,37.0,36.0,-100.00,NNE,12,8.0,13.0,98,0.02,,,0.18,0.000000,,2013-04-08 06:21:00,
2013-04-08 00:43:00,32.0,31.0,-100.00,NNE,21,11.0,17.0,97,0.01,,,0.19,0.000000,,2013-04-08 06:43:00,
2013-04-08 00:52:00,32.0,31.0,-100.00,NNE,21,11.0,17.0,97,0.01,,,0.19,0.000000,,2013-04-08 06:52:00,
2013-04-08 01:02:00,32.0,31.0,-100.00,NNE,21,11.0,17.0,97,0.01,,,0.19,0.000000,,2013-04-08 07:02:00,
2013-04-08 01:12:00,32.0,31.0,-100.00,NNE,21,11.0,17.0,97,0.01,,,0.19,0.000000,,2013-04-08 07:12:00,
2013-04-08 01:21:00,32.0,31.0,-100.00,NNE,21,11.0,17.0,97,0.01,,,0.19,0.000000,,2013-04-08 07:21:00,
2013-04-08 01:42:00,30.0,29.0,-100.00,North,11,13.0,19.0,98,0.00,,,0.19,0.000000,,2013-04-08 07:42:00,
2013-04-08 01:52:00,30.0,29.0,-100.00,North,11,13.0,19.0,98,0.00,,,0.19,0.000000,,2013-04-08 07:52:00,
2013-04-08 02:02:00,30.0,29.0,-100.00,North,11,13.0,19.0,98,0.00,,,0.19,0.000000,,2013-04-08 08:02:00,
2013-04-08 02:11:00,30.0,29.0,-100.00,North,11,13.0,19.0,98,0.00,,,0.19,0.000000,,2013-04-08 08:11:00,
2013-04-08 02:22:00,28.0,28.0,-100.00,North,353,6.0,15.0,98,0.00,,,0.17,0.000000,,2013-04-08 08:22:00,
2013-04-08 02:43:00,28.0,28.0,-100.00,North,353,6.0,15.0,98,0.00,,,0.17,0.000000,,2013-04-08 08:43:00,
2013-04-08 02:52:00,28.0,28.0,-100.00,North,353,6.0,15.0,98,0.00,,,0.17,0.000000,,2013-04-08 08:52:00,
2013-04-08 03:02:00,28.0,28.0,-100.00,North,353,6.0,15.0,98,0.00,,,0.17,0.000000,,2013-04-08 09:02:00,
2013-04-08 03:12:00,28.0,28.0,-100.00,North,353,6.0,15.0,98,0.00,,,0.17,0.000000,,2013-04-08 09:12:00,
2013-04-08 03:22:00,28.0,28.0,-100.00,NNE,32,1.0,12.0,98,0.00,,,0.13,0.000000,,2013-04-08 09:22:00,
2013-04-08 03:43:00,28.0,28.0,-100.00,NNE,32,1.0,12.0,98,0.00,,,0.13,0.000000,,2013-04-08 09:43:00,
2013-04-08 03:53:00,28.0,28.0,-100.00,NNE,32,1.0,12.0,98,0.00,,,0.13,0.000000,,2013-04-08 09:53:00,
2013-04-08 04:03:00,28.0,28.0,-100.00,NNE,32,1.0,12.0,98,0.00,,,0.13,0.000000,,2013-04-08 10:03:00,
2013-04-08 04:12:00,28.0,28.0,-100.00,NNE,32,1.0,12.0,98,0.00,,,0.13,0.000000,,2013-04-08 10:12:00,
2013-04-08 04:22:00,28.0,28.0,-100.00,NE,42,5.0,9.0,98,0.00,,,0.13,0.000000,,2013-04-08 10:22:00,
2013-04-08 04:43:00,28.0,28.0,-100.00,NE,42,5.0,9.0,98,0.00,,,0.13,0.000000,,2013-04-08 10:43:00,
2013-04-08 04:53:00,28.0,28.0,-100.00,NE,42,5.0,9.0,98,0.00,,,0.13,0.000000,,2013-04-08 10:53:00,
2013-04-08 05:02:00,28.0,28.0,-100.00,NE,42,5.0,9.0,98,0.00,,,0.13,0.000000,,2013-04-08 11:02:00,
2013-04-08 05:12:00,28.0,28.0,-100.00,NE,42,5.0,9.0,98,0.00,,,0.13,0.000000,,2013-04-08 11:12:00,
2013-04-08 05:43:00,26.0,26.0,-100.00,ENE,60,5.0,9.0,98,0.00,,,0.13,0.000000,,2013-04-08 11:43:00,
2013-04-08 05:52:00,26.0,26.0,-100.00,ENE,60,5.0,9.0,98,0.00,,,0.13,0.000000,,2013-04-08 11:52:00,
2013-04-08 06:02:00,26.0,26.0,-100.00,ENE,60,5.0,9.0,98,0.00,,,0.13,0.000000,,2013-04-08 12:02:00,
2013-04-08 06:12:00,26.0,26.0,-100.00,ENE,60,5.0,9.0,98,0.00,,,0.13,0.000000,,2013-04-08 12:12:00,
2013-04-08 06:21:00,26.0,26.0,-100.00,ENE,60,5.0,9.0,98,0.00,,,0.13,0.000000,,2013-04-08 12:21:00,
2013-04-08 06:22:00,25.0,24.0,-100.00,East,90,5.0,8.0,97,0.00,,,0.13,0.000000,,2013-04-08 12:22:00,
2013-04-08 06:52:00,25.0,24.0,-100.00,East,90,5.0,8.0,97,0.00,,,0.13,0.000000,,2013-04-08 12:52:00,
2013-04-08 07:02:00,25.0,24.0,-100.00,East,90,5.0,8.0,97,0.00,,,0.13,0.000000,,2013-04-08 13:02:00,
2013-04-08 07:12:00,25.0,24.0,-100.00,East,90,5.0,8.0,97,0.00,,,0.13,0.000000,,2013-04-08 13:12:00,
2013-04-08 07:43:00,22.0,21.0,-100.00,ENE,61,10.0,13.0,94,0.00,,,0.13,2.000000,,2013-04-08 13:43:00,
2013-04-08 07:52:00,22.0,21.0,-100.00,ENE,61,10.0,13.0,94,0.00,,,0.13,2.000000,,2013-04-08 13:52:00,
2013-04-08 08:02:00,22.0,21.0,-100.00,ENE,61,10.0,13.0,94,0.00,,,0.13,2.000000,,2013-04-08 14:02:00,
2013-04-08 08:12:00,22.0,21.0,-100.00,ENE,61,10.0,13.0,94,0.00,,,0.13,2.000000,,2013-04-08 14:12:00,
2013-04-08 08:21:00,22.0,21.0,-100.00,ENE,61,10.0,13.0,94,0.00,,,0.13,2.000000,,2013-04-08 14:21:00,
2013-04-08 08:43:00,21.0,19.0,-100.00,East,83,9.0,13.0,91,0.00,,,0.13,43.000000,,2013-04-08 14:43:00,
2013-04-08 08:52:00,21.0,19.0,-100.00,East,83,9.0,13.0,91,0.00,,,0.13,43.000000,,2013-04-08 14:52:00,
2013-04-08 09:02:00,21.0,19.0,-100.00,East,83,9.0,13.0,91,0.00,,,0.13,43.000000,,2013-04-08 15:02:00,
2013-04-08 09:12:00,21.0,19.0,-100.00,East,83,9.0,13.0,91,0.00,,,0.13,43.000000,,2013-04-08 15:12:00,
2013-04-08 09:21:00,21.0,19.0,-100.00,East,83,9.0,13.0,91,0.00,,,0.13,43.000000,,2013-04-08 15:21:00,
2013-04-08 09:22:00,21.0,19.0,-100.00,East,96,5.0,13.0,90,0.00,,,0.13,195.000000,,2013-04-08 15:22:00,
2013-04-08 09:43:00,21.0,19.0,-100.00,East,96,5.0,13.0,90,0.00,,,0.13,195.000000,,2013-04-08 15:43:00,
2013-04-08 09:53:00,21.0,19.0,-100.00,East,96,5.0,13.0,90,0.00,,,0.13,195.000000,,2013-04-08 15:53:00,
2013-04-08 10:03:00,21.0,19.0,-100.00,East,96,5.0,13.0,90,0.00,,,0.13,195.000000,,2013-04-08 16:03:00,
2013-04-08 10:12:00,21.0,19.0,-100.00,East,96,5.0,13.0,90,0.00,,,0.13,195.000000,,2013-04-08 16:12:00,
2013-04-08 10:22:00,22.0,19.0,-100.00,East,84,4.0,8.0,88,0.00,,,0.13,278.000000,,2013-04-08 16:22:00,
2013-04-08 10:53:00,22.0,19.0,-100.00,East,84,4.0,8.0,88,0.00,,,0.13,278.000000,,2013-04-08 16:53:00,
2013-04-08 11:02:00,22.0,19.0,-100.00,East,84,4.0,8.0,88,0.00,,,0.13,278.000000,,2013-04-08 17:02:00,
2013-04-08 11:12:00,22.0,19.0,-100.00,East,84,4.0,8.0,88,0.00,,,0.13,278.000000,,2013-04-08 17:12:00,
2013-04-08 11:22:00,23.0,18.0,-100.00,North,10,6.0,9.0,80,0.00,,,0.13,284.000000,,2013-04-08 17:22:00,
2013-04-08 11:44:00,23.0,18.0,-100.00,North,10,6.0,9.0,80,0.00,,,0.13,284.000000,,2013-04-08 17:44:00,
2013-04-08 11:52:00,23.0,18.0,-100.00,North,10,6.0,9.0,80,0.00,,,0.13,284.000000,,2013-04-08 17:52:00,
2013-04-08 12:02:00,23.0,18.0,-100.00,North,10,6.0,9.0,80,0.00,,,0.13,284.000000,,2013-04-08 18:02:00,
2013-04-08 12:12:00,23.0,18.0,-100.00,North,10,6.0,9.0,80,0.00,,,0.13,284.000000,,2013-04-08 18:12:00,
2013-04-08 12:42:00,23.0,18.0,-100.00,North,7,5.0,9.0,82,0.00,,,0.13,411.000000,,2013-04-08 18:42:00,
2013-04-08 12:52:00,23.0,18.0,-100.00,North,7,5.0,9.0,82,0.00,,,0.13,411.000000,,2013-04-08 18:52:00,
2013-04-08 13:02:00,23.0,18.0,-100.00,North,7,5.0,9.0,82,0.00,,,0.13,411.000000,,2013-04-08 19:02:00,
2013-04-08 13:12:00,23.0,18.0,-100.00,North,7,5.0,9.0,82,0.00,,,0.13,411.000000,,2013-04-08 19:12:00,
2013-04-08 13:21:00,23.0,18.0,-100.00,North,7,5.0,9.0,82,0.00,,,0.13,411.000000,,2013-04-08 19:21:00,
2013-04-08 13:22:00,23.0,17.0,-100.00,NE,36,7.0,10.0,79,0.00,,,0.13,652.000000,,2013-04-08 19:22:00,
2013-04-08 13:43:00,23.0,17.0,-100.00,NE,36,7.0,10.0,79,0.00,,,0.13,652.000000,,2013-04-08 19:43:00,
2013-04-08 13:52:00,23.0,17.0,-100.00,NE,36,7.0,10.0,79,0.00,,,0.13,652.000000,,2013-04-08 19:52:00,
2013-04-08 14:02:00,23.0,17.0,-100.00,NE,36,7.0,10.0,79,0.00,,,0.13,652.000000,,2013-04-08 20:02:00,
2013-04-08 14:12:00,23.0,17.0,-100.00,NE,36,7.0,10.0,79,0.00,,,0.13,652.000000,,2013-04-08 20:12:00,
2013-04-08 14:43:00,22.0,17.0,-100.00,NNE,15,10.0,12.0,80,0.04,,,0.17,770.000000,,2013-04-08 20:43:00,
2013-04-08 14:52:00,22.0,17.0,-100.00,NNE,15,10.0,12.0,80,0.04,,,0.17,770.000000,,2013-04-08 20:52:00,
2013-04-08 15:02:00,22.0,17.0,-100.00,NNE,15,10.0,12.0,80,0.04,,,0.17,770.000000,,2013-04-08 21:02:00,
2013-04-08 15:12:00,22.0,17.0,-100.00,NNE,15,10.0,12.0,80,0.04,,,0.17,770.000000,,2013-04-08 21:12:00,
2013-04-08 15:21:00,22.0,17.0,-100.00,NNE,15,10.0,12.0,80,0.04,,,0.17,770.000000,,2013-04-08 21:21:00,
2013-04-08 15:22:00,21.0,16.0,-100.00,North,0,7.0,11.0,80,0.02,,,0.19,675.000000,,2013-04-08 21:22:00,
2013-04-08 15:43:00,21.0,16.0,-100.00,North,0,7.0,11.0,80,0.02,,,0.19,675.000000,,2013-04-08 21:43:00,
2013-04-08 15:53:00,21.0,16.0,-100.00,North,0,7.0,11.0,80,0.02,,,0.19,675.000000,,2013-04-08 21:53:00,
2013-04-08 16:02:00,21.0,16.0,-100.00,North,0,7.0,11.0,80,0.02,,,0.19,675.000000,,2013-04-08 22:02:00,
2013-04-08 16:12:00,21.0,16.0,-100.00,North,0,7.0,11.0,80,0.02,,,0.19,675.000000,,2013-04-08 22:12:00,
2013-04-08 16:43:00,21.0,16.0,-100.00,NE,36,8.0,11.0,80,0.00,,,0.19,529.000000,,2013-04-08 22:43:00,
2013-04-08 16:53:00,21.0,16.0,-100.00,NE,36,8.0,11.0,80,0.00,,,0.19,529.000000,,2013-04-08 22:53:00,
2013-04-08 17:02:00,21.0,16.0,-100.00,NE,36,8.0,11.0,80,0.00,,,0.19,529.000000,,2013-04-08 23:02:00,
2013-04-08 17:12:00,21.0,16.0,-100.00,NE,36,8.0,11.0,80,0.00,,,0.19,529.000000,,2013-04-08 23:12:00,
2013-04-08 17:21:00,21.0,16.0,-100.00,NE,36,8.0,11.0,80,0.00,,,0.19,529.000000,,2013-04-08 23:21:00,
2013-04-08 17:43:00,19.0,15.0,-100.00,NNE,17,8.0,12.0,83,0.01,,,0.20,448.000000,,2013-04-08 23:43:00,
2013-04-08 17:52:00,19.0,15.0,-100.00,NNE,17,8.0,12.0,83,0.01,,,0.20,448.000000,,2013-04-08 23:52:00,
2013-04-08 18:02:00,19.0,15.0,-100.00,NNE,17,8.0,12.0,83,0.01,,,0.20,448.000000,,2013-04-09 00:02:00,
2013-04-08 18:12:00,19.0,15.0,-100.00,NNE,17,8.0,12.0,83,0.01,,,0.20,448.000000,,2013-04-09 00:12:00,
2013-04-08 18:21:00,19.0,15.0,-100.00,NNE,17,8.0,12.0,83,0.01,,,0.20,448.000000,,2013-04-09 00:21:00,
2013-04-08 18:42:00,18.0,14.0,-100.00,NNE,18,2.0,9.0,84,0.00,,,0.20,218.000000,,2013-04-09 00:42:00,
2013-04-08 18:52:00,18.0,14.0,-100.00,NNE,18,2.0,9.0,84,0.00,,,0.20,218.000000,,2013-04-09 00:52:00,
2013-04-08 19:02:00,18.0,14.0,-100.00,NNE,18,2.0,9.0,84,0.00,,,0.20,218.000000,,2013-04-09 01:02:00,
2013-04-08 19:12:00,18.0,14.0,-100.00,NNE,18,2.0,9.0,84,0.00,,,0.20,218.000000,,2013-04-09 01:12:00,
2013-04-08 19:21:00,18.0,14.0,-100.00,NNE,18,2.0,9.0,84,0.00,,,0.20,218.000000,,2013-04-09 01:21:00,
2013-04-08 19:42:00,17.0,14.0,-100.00,NNE,16,3.0,7.0,88,0.00,,,0.20,89.000000,,2013-04-09 01:42:00,
2013-04-08 19:52:00,17.0,14.0,-100.00,NNE,16,3.0,7.0,88,0.00,,,0.20,89.000000,,2013-04-09 01:52:00,
2013-04-08 20:02:00,17.0,14.0,-100.00,NNE,16,3.0,7.0,88,0.00,,,0.20,89.000000,,2013-04-09 02:02:00,
2013-04-08 20:12:00,17.0,14.0,-100.00,NNE,16,3.0,7.0,88,0.00,,,0.20,89.000000,,2013-04-09 02:12:00,
2013-04-08 20:21:00,17.0,14.0,-100.00,NNE,16,3.0,7.0,88,0.00,,,0.20,89.000000,,2013-04-09 02:21:00,
2013-04-08 20:44:00,16.0,14.0,-100.00,NNE,16,5.0,6.0,90,0.00,,,0.20,8.000000,,2013-04-09 02:44:00,
2013-04-08 20:52:00,16.0,14.0,-100.00,NNE,16,5.0,6.0,90,0.00,,,0.20,8.000000,,2013-04-09 02:52:00,
2013-04-08 21:02:00,16.0,14.0,-100.00,NNE,16,5.0,6.0,90,0.00,,,0.20,8.000000,,2013-04-09 03:02:00,
2013-04-08 21:12:00,16.0,14.0,-100.00,NNE,16,5.0,6.0,90,0.00,,,0.20,8.000000,,2013-04-09 03:12:00,
2013-04-08 21:21:00,16.0,14.0,-100.00,NNE,16,5.0,6.0,90,0.00,,,0.20,8.000000,,2013-04-09 03:21:00,
2013-04-08 21:22:00,16.0,14.0,-100.00,North,356,2.0,6.0,90,0.00,,,0.19,0.000000,,2013-04-09 03:22:00,
2013-04-08 21:43:00,16.0,14.0,-100.00,North,356,2.0,6.0,90,0.00,,,0.19,0.000000,,2013-04-09 03:43:00,
2013-04-08 21:53:00,16.0,14.0,-100.00,North,356,2.0,6.0,90,0.00,,,0.19,0.000000,,2013-04-09 03:53:00,
2013-04-08 22:02:00,16.0,14.0,-100.00,North,356,2.0,6.0,90,0.00,,,0.19,0.000000,,2013-04-09 04:02:00,
2013-04-08 22:12:00,16.0,14.0,-100.00,North,356,2.0,6.0,90,0.00,,,0.19,0.000000,,2013-04-09 04:12:00,
2013-04-08 22:43:00,16.0,13.0,-100.00,NW,317,2.0,4.0,86,0.00,,,0.10,0.000000,,2013-04-09 04:43:00,
2013-04-08 22:53:00,16.0,13.0,-100.00,NW,317,2.0,4.0,86,0.00,,,0.10,0.000000,,2013-04-09 04:53:00,
2013-04-08 23:02:00,16.0,13.0,-100.00,NW,317,2.0,4.0,86,0.00,,,0.10,0.000000,,2013-04-09 05:02:00,
2013-04-08 23:12:00,16.0,13.0,-100.00,NW,317,2.0,4.0,86,0.00,,,0.10,0.000000,,2013-04-09 05:12:00,
2013-04-08 23:21:00,16.0,13.0,-100.00,NW,317,2.0,4.0,86,0.00,,,0.10,0.000000,,2013-04-09 05:21:00,
2013-04-08 23:22:00,16.0,13.0,-100.00,NW,305,1.0,4.0,87,0.00,,,0.08,0.000000,,2013-04-09 05:22:00,
2013-04-08 23:43:00,16.0,13.0,-100.00,NW,305,1.0,4.0,87,0.00,,,0.08,0.000000,,2013-04-09 05:43:00,
2013-04-08 23:52:00,16.0,13.0,-100.00,NW,305,1.0,4.0,87,0.00,,,0.08,0.000000,,2013-04-09 05:52:00,